Location: Northcutt
(34.7304°N, 84.4305°W)
Time: 03:38:05
(UTC+00:00)

Vanguard 2 - Pass Details

Date: 10 October 2022
Orbit: 553 x 2933 km, 32.9° (Epoch: 04 December)

Event Time Altitude Azimuth Distance (km) Brightness Sun altitude
Rises 16:40:47 0° 249° (WSW) 3,612 11.0 47.2°
Reaches altitude 10° 16:42:55 10° 246° (WSW) 2,884 10.7 47.3°
Maximum altitude 16:50:06 70° 164° (SSE) 1,570 10.7 47.7°
Drops below altitude 10° 17:02:28 10° 84° (E) 4,775 11.7 48.1°
Sets 17:07:03 0° 83° (E) 6,115 12.1 48.2°
